Location: L'Union
(43.6635°N, 1.4699°E)
Time: 00:30:24
(UTC+02:00)

Envisat - Pass Details

Date: 02 August 2021
Orbit: 764 x 766 km, 98.2° (Epoch: 17 September)

Event Time Altitude Azimuth Distance (km) Brightness Sun altitude
Rises 06:06:55 0° 27° (NNE) 3,242 7.4 -6.7°
Reaches altitude 10° 06:09:50 10° 44° (NE) 2,310 7.1 -6.3°
Maximum altitude 06:13:34 20° 92° (E) 1,701 5.7 -5.7°
Drops below altitude 10° 06:17:16 10° 139° (SE) 2,296 5.6 -5.2°
Sets 06:20:08 0° 156° (SSE) 3,216 6.2 -4.7°
